Total_Precipitation_Accumulation
1.41 1.27 1.21 1.21 1.19 1.13 1.04 0.92 0.87 0.86 0.83 0.80 0.70 0.59 0.56 0.56 0.50 0.45 0.45 0.49 0.58 0.83 1.10 1.30 1.41 1.47 1.51 1.51 1.37 1.30 1.20 1.11 1.07 1.10 1.08 1.06 0.99 0.98 1.06 1.16 1.13 1.06 1.02
1.86 1.71 1.60 1.49 1.43 1.36 1.28 1.17 1.08 1.08 1.04 0.96 0.88 0.72 0.64 0.64 0.65 0.62 0.57 0.54 0.54 0.64 0.96 1.24 1.46 1.61 1.72 1.78 1.71 1.47 1.31 1.17 1.10 1.12 1.10 1.08 1.05 1.03 1.05 1.06 1.15 1.17 1.15
1.97 1.95 1.90 1.86 1.77 1.70 1.59 1.48 1.39 1.32 1.26 1.17 1.04 0.93 0.82 0.75 0.74 0.76 0.75 0.67 0.63 0.63 0.83 1.16 1.39 1.59 1.75 1.91 1.99 1.86 1.61 1.37 1.25 1.20 1.16 1.08 1.03 1.05 1.10 1.09 1.10 1.12 1.15
2.03 1.96 1.88 1.79 1.80 1.93 1.95 1.81 1.65 1.53 1.39 1.32 1.22 1.07 0.91 0.85 0.79 0.80 0.84 0.85 0.81 0.71 0.74 0.96 1.21 1.42 1.59 1.86 2.00 2.14 2.10 1.77 1.53 1.39 1.28 1.14 1.06 1.04 1.05 1.07 1.07 1.04 1.05
2.21 2.12 1.99 1.92 1.92 1.84 1.90 1.94 1.82 1.62 1.52 1.45 1.38 1.27 1.08 0.95 0.87 0.84 0.83 0.84 0.88 0.83 0.77 0.83 0.95 1.11 1.29 1.55 1.82 2.12 2.31 2.15 1.86 1.62 1.44 1.29 1.20 1.13 1.09 1.11 1.13 1.10 1.09
2.39 2.28 2.09 2.06 2.13 2.02 1.91 1.83 1.88 1.78 1.59 1.55 1.54 1.46 1.32 1.18 1.09 0.98 0.92 0.91 0.90 0.90 0.89 0.81 0.81 0.86 1.01 1.27 1.58 1.90 2.11 2.22 2.17 1.96 1.74 1.53 1.38 1.33 1.31 1.30 1.28 1.26 1.24
2.53 2.52 2.31 2.16 2.16 2.07 1.95 1.90 1.91 1.98 1.93 1.82 1.87 1.80 1.62 1.44 1.32 1.19 1.10 1.08 1.02 1.00 1.01 0.99 0.93 0.85 0.86 1.03 1.28 1.53 1.75 1.97 2.06 2.02 1.96 1.86 1.69 1.60 1.57 1.54 1.48 1.43 1.44
2.47 2.49 2.51 2.43 2.29 2.19 2.13 2.11 2.11 2.15 2.19 2.18 2.19 2.19 2.06 1.89 1.54 1.27 1.19 1.16 1.11 1.10 1.08 1.05 1.01 0.93 0.85 0.89 1.01 1.17 1.37 1.70 1.91 2.03 1.99 1.94 1.90 1.87 1.88 1.88 1.81 1.73 1.66
2.49 2.39 2.39 2.50 2.46 2.34 2.20 2.15 2.13 2.17 2.23 2.23 2.23 2.38 2.20 1.87 1.53 1.35 1.18 1.10 1.12 1.15 1.13 1.15 1.17 1.12 1.03 0.95 0.93 1.00 1.10 1.35 1.70 1.99 2.14 2.10 2.05 2.07 2.13 2.22 2.24 2.15 2.01
2.59 2.52 2.43 2.44 2.45 2.35 2.20 2.17 2.11 2.10 2.18 2.22 2.20 2.15 2.05 1.74 1.58 1.48 1.32 1.18 1.14 1.16 1.22 1.22 1.23 1.27 1.26 1.20 1.13 1.09 1.07 1.13 1.51 1.91 2.25 2.38 2.40 2.39 2.42 2.47 2.51 2.49 2.36
2.59 2.53 2.46 2.43 2.36 2.26 2.20 2.25 2.20 2.18 2.18 2.18 2.12 2.07 2.07 1.88 1.65 1.59 1.46 1.30 1.27 1.21 1.27 1.35 1.32 1.31 1.31 1.28 1.18 1.18 1.22 1.21 1.48 1.90 2.36 2.58 2.65 2.75 2.81 2.81 2.78 2.75 2.67
2.60 2.50 2.38 2.31 2.28 2.25 2.22 2.25 2.31 2.27 2.24 2.25 2.19 2.09 2.11 2.10 1.89 1.80 1.70 1.47 1.43 1.34 1.26 1.32 1.36 1.34 1.32 1.28 1.23 1.31 1.24 1.24 1.34 1.64 2.17 2.61 2.65 2.71 2.90 3.05 3.02 2.91 2.84
2.32 2.28 2.28 2.22 2.15 2.08 2.10 2.17 2.26 2.28 2.23 2.23 2.21 2.16 2.12 2.05 1.92 1.91 1.93 1.78 1.66 1.57 1.51 1.45 1.37 1.34 1.33 1.33 1.34 1.42 1.30 1.31 1.37 1.51 1.89 2.35 2.50 2.44 2.49 2.77 3.06 3.16 3.17
2.15 2.16 2.17 2.16 2.15 2.11 2.05 2.08 2.14 2.18 2.19 2.13 2.04 2.02 2.01 1.97 2.00 2.01 2.02 2.09 2.07 1.85 1.68 1.55 1.44 1.40 1.41 1.40 1.54 1.66 1.43 1.57 1.58 1.63 1.83 2.10 2.25 2.22 2.18 2.26 2.52 2.79 2.96
1.97 2.00 2.02 2.05 2.09 2.11 2.06 2.05 2.08 2.06 2.06 2.05 2.02 1.96 1.88 1.79 1.83 1.87 1.88 2.00 2.21 2.17 1.84 1.52 1.47 1.54 1.60 1.61 1.75 1.66 1.54 1.78 1.78 1.74 1.80 1.90 1.97 2.03 2.03 2.04 2.09 2.18 2.32
1.78 1.80 1.82 1.84 1.88 1.94 1.98 1.99 1.97 1.92 1.90 1.87 1.87 1.92 1.89 1.77 1.77 1.84 1.92 1.96 2.03 2.13 1.95 1.48 1.35 1.44 1.65 1.78 1.97 1.80 1.71 1.98 1.91 1.81 1.77 1.76 1.74 1.73 1.80 1.85 1.90 1.97 1.99
1.60 1.62 1.61 1.64 1.65 1.68 1.75 1.83 1.82 1.82 1.84 1.79 1.77 1.81 1.83 1.80 1.81 1.85 1.95 2.03 2.07 2.15 2.14 1.71 1.47 1.46 1.60 1.71 1.79 1.73 1.71 1.75 1.73 1.87 1.73 1.61 1.57 1.55 1.58 1.62 1.68 1.75 1.80
1.49 1.52 1.50 1.48 1.47 1.47 1.53 1.60 1.64 1.66 1.70 1.71 1.71 1.75 1.78 1.80 1.84 1.85 1.96 2.03 2.02 1.98 2.01 1.90 1.62 1.49 1.47 1.49 1.54 1.59 1.59 1.55 1.52 1.71 1.67 1.57 1.48 1.47 1.49 1.52 1.54 1.59 1.67
1.35 1.39 1.42 1.39 1.37 1.37 1.43 1.46 1.47 1.50 1.53 1.56 1.58 1.63 1.63 1.69 1.77 1.76 1.83 1.92 1.92 1.89 1.87 1.80 1.57 1.38 1.34 1.35 1.46 1.54 1.54 1.48 1.39 1.51 1.54 1.54 1.49 1.46 1.47 1.43 1.43 1.44 1.46
1.15 1.23 1.31 1.29 1.25 1.27 1.34 1.40 1.46 1.48 1.46 1.45 1.46 1.52 1.57 1.61 1.64 1.67 1.76 1.80 1.82 1.86 1.87 1.84 1.71 1.49 1.35 1.30 1.36 1.46 1.53 1.47 1.38 1.32 1.48 1.48 1.48 1.48 1.47 1.36 1.26 1.24 1.23
0.94 0.97 1.07 1.15 1.18 1.20 1.26 1.31 1.39 1.46 1.47 1.46 1.45 1.48 1.56 1.75 1.79 1.77 1.77 1.74 1.77 1.86 1.88 1.86 1.72 1.56 1.39 1.30 1.33 1.28 1.33 1.41 1.44 1.37 1.37 1.35 1.31 1.30 1.36 1.41 1.37 1.31 1.30
0.86 0.88 0.95 1.00 1.07 1.14 1.41 1.48 1.43 1.44 1.50 1.50 1.48 1.44 1.48 1.63 1.63 1.67 1.70 1.70 1.77 1.89 1.94 1.86 1.66 1.44 1.19 1.05 1.07 1.19 1.29 1.46 1.54 1.34 1.32 1.39 1.31 1.36 1.31 1.31 1.44 1.40 1.37
0.89 0.93 0.96 1.02 1.08 1.23 1.49 1.53 1.62 1.53 1.50 1.47 1.43 1.38 1.33 1.31 1.38 1.24 1.36 1.52 1.59 1.62 1.59 1.56 1.54 1.26 1.09 0.99 1.12 1.30 1.33 1.35 1.25 1.13 1.29 1.53 1.45 1.43 1.31 1.35 1.49 1.40 1.39
1.02 1.10 1.15 1.18 1.24 1.37 1.51 1.48 1.55 1.41 1.36 1.31 1.24 1.21 1.17 1.10 1.11 1.17 1.21 1.33 1.26 1.22 1.21 1.14 1.11 1.03 1.01 1.07 1.22 1.41 1.51 1.55 1.39 1.27 1.34 1.56 1.43 1.38 1.27 1.29 1.46 1.42 1.43
1.31 1.29 1.27 1.23 1.23 1.27 1.35 1.35 1.37 1.27 1.26 1.19 1.09 1.06 1.06 1.02 1.15 1.33 1.34 1.29 1.16 1.13 1.21 1.26 1.26 1.25 1.34 1.44 1.51 1.70 1.87 2.00 1.79 1.41 1.25 1.30 1.23 1.20 1.21 1.26 1.36 1.48 1.46
1.28 1.27 1.26 1.22 1.16 1.12 1.18 1.18 1.19 1.12 1.10 1.02 0.98 0.96 1.03 1.03 1.22 1.40 1.35 1.29 1.20 1.01 1.02 1.13 1.18 1.19 1.19 1.27 1.47 1.50 1.62 1.97 1.81 1.46 1.04 1.07 1.12 1.23 1.53 1.28 1.18 1.25 1.39